Time,TemperatureF,DewpointF,PressureIn,WindDirection,WindDirectionDegrees,WindSpeedMPH,WindSpeedGustMPH,Humidity,HourlyPrecipIn,Conditions,Clouds,dailyrainin,SoftwareType,DateUTC
2013-03-31 00:07:00,45.3,11.6,29.32,NW,308,0.0,0.0,25,0.00,,,0.00,VWS V14.01,2013-03-31 04:07:00,
2013-03-31 00:21:00,45.1,11.4,29.32,NW,308,0.0,0.0,25,0.00,,,0.00,VWS V14.01,2013-03-31 04:21:00,
2013-03-31 00:37:00,45.0,13.0,29.32,NW,308,0.0,0.0,27,0.00,,,0.00,VWS V14.01,2013-03-31 04:37:00,
2013-03-31 00:52:00,45.0,13.0,29.32,NW,308,0.0,0.0,27,0.00,,,0.00,VWS V14.01,2013-03-31 04:52:00,
2013-03-31 01:06:00,45.1,13.2,29.32,NW,308,0.0,0.0,27,0.00,,,0.00,VWS V14.01,2013-03-31 05:06:00,
2013-03-31 01:21:00,45.3,14.1,29.29,NW,308,0.0,0.0,28,0.00,,,0.00,VWS V14.01,2013-03-31 05:21:00,
2013-03-31 01:36:00,45.3,14.1,29.29,NW,308,0.0,0.0,28,0.00,,,0.00,VWS V14.01,2013-03-31 05:36:00,
2013-03-31 01:51:00,45.1,14.0,29.29,NW,308,0.0,0.0,28,0.00,,,0.00,VWS V14.01,2013-03-31 05:51:00,
2013-03-31 02:06:00,45.0,13.8,29.29,NW,308,0.0,0.0,28,0.00,,,0.00,VWS V14.01,2013-03-31 06:06:00,
2013-03-31 02:22:00,45.0,13.8,29.29,NW,308,0.0,0.0,28,0.00,,,0.00,VWS V14.01,2013-03-31 06:22:00,
2013-03-31 02:37:00,45.1,14.0,29.26,NW,308,0.0,0.0,28,0.00,,,0.00,VWS V14.01,2013-03-31 06:37:00,
2013-03-31 02:51:00,45.3,14.1,29.26,NW,308,0.0,0.0,28,0.00,,,0.00,VWS V14.01,2013-03-31 06:51:00,
2013-03-31 03:06:00,45.3,14.1,29.26,NW,308,0.0,0.0,28,0.00,,,0.00,VWS V14.01,2013-03-31 07:06:00,
2013-03-31 03:21:00,45.3,14.1,29.26,NW,308,0.0,0.0,28,0.00,,,0.00,VWS V14.01,2013-03-31 07:21:00,
2013-03-31 03:36:00,45.1,14.0,29.26,NW,308,0.0,0.0,28,0.00,,,0.00,VWS V14.01,2013-03-31 07:36:00,
2013-03-31 03:52:00,45.1,14.8,29.26,NW,308,0.0,0.0,29,0.00,,,0.00,VWS V14.01,2013-03-31 07:52:00,
2013-03-31 04:06:00,45.3,14.9,29.23,NW,308,0.0,0.0,29,0.00,,,0.00,VWS V14.01,2013-03-31 08:06:00,
2013-03-31 04:22:00,45.3,14.9,29.23,NW,308,0.0,0.0,29,0.00,,,0.00,VWS V14.01,2013-03-31 08:22:00,
2013-03-31 04:36:00,45.5,15.9,29.26,South,174,0.0,0.0,30,0.00,,,0.00,VWS V14.01,2013-03-31 08:36:00,
2013-03-31 04:51:00,44.8,16.0,29.26,South,174,0.0,0.0,31,0.00,,,0.00,VWS V14.01,2013-03-31 08:51:00,
2013-03-31 05:06:00,44.4,17.8,29.26,South,174,0.0,0.0,34,0.00,,,0.00,VWS V14.01,2013-03-31 09:06:00,
2013-03-31 05:21:00,44.1,18.8,29.26,South,174,0.0,0.0,36,0.00,,,0.00,VWS V14.01,2013-03-31 09:21:00,
2013-03-31 05:36:00,43.9,19.9,29.26,South,174,0.0,0.0,38,0.04,,,0.04,VWS V14.01,2013-03-31 09:36:00,
2013-03-31 05:52:00,43.7,19.8,29.23,South,174,0.0,0.0,38,0.04,,,0.04,VWS V14.01,2013-03-31 09:52:00,
2013-03-31 06:21:00,43.5,20.8,29.23,South,174,0.0,0.0,40,0.08,,,0.08,VWS V14.01,2013-03-31 10:21:00,
2013-03-31 06:37:00,43.7,21.6,29.21,South,174,0.0,0.0,41,0.08,,,0.08,VWS V14.01,2013-03-31 10:37:00,
2013-03-31 06:52:00,43.9,22.3,29.21,South,174,0.0,0.0,42,0.04,,,0.08,VWS V14.01,2013-03-31 10:52:00,
2013-03-31 07:06:00,43.9,23.9,29.21,SSE,155,0.0,0.0,45,0.04,,,0.08,VWS V14.01,2013-03-31 11:06:00,
2013-03-31 07:21:00,44.1,24.6,29.18,SSE,155,0.0,0.0,46,0.00,,,0.08,VWS V14.01,2013-03-31 11:21:00,
2013-03-31 07:37:00,44.4,26.0,29.18,SSE,155,0.0,0.0,48,0.00,,,0.08,VWS V14.01,2013-03-31 11:37:00,
2013-03-31 07:52:00,44.4,26.5,29.18,North,3,0.0,0.0,49,0.00,,,0.08,VWS V14.01,2013-03-31 11:52:00,
2013-03-31 08:07:00,44.2,26.8,29.18,North,0,0.0,0.0,50,0.00,,,0.08,VWS V14.01,2013-03-31 12:07:00,
2013-03-31 08:21:00,44.4,27.4,29.18,North,0,0.0,0.0,51,0.00,,,0.08,VWS V14.01,2013-03-31 12:21:00,
2013-03-31 08:36:00,44.6,27.6,29.18,North,0,0.0,0.0,51,0.00,,,0.08,VWS V14.01,2013-03-31 12:36:00,
2013-03-31 08:52:00,45.3,28.8,29.18,North,0,0.0,0.0,52,0.00,,,0.08,VWS V14.01,2013-03-31 12:52:00,
2013-03-31 09:06:00,45.5,29.4,29.18,North,0,0.0,0.0,53,0.00,,,0.08,VWS V14.01,2013-03-31 13:06:00,
2013-03-31 09:37:00,46.0,30.8,29.15,North,0,0.0,0.0,55,0.00,,,0.08,VWS V14.01,2013-03-31 13:37:00,
2013-03-31 09:51:00,46.6,31.7,29.15,North,0,0.0,0.0,56,0.00,,,0.08,VWS V14.01,2013-03-31 13:51:00,
2013-03-31 10:07:00,46.9,32.5,29.15,North,0,0.0,0.0,57,0.00,,,0.08,VWS V14.01,2013-03-31 14:07:00,
2013-03-31 10:22:00,47.1,33.1,29.15,North,0,0.0,0.0,58,0.00,,,0.08,VWS V14.01,2013-03-31 14:22:00,
2013-03-31 10:36:00,47.3,33.7,29.15,North,0,0.0,0.0,59,0.00,,,0.08,VWS V14.01,2013-03-31 14:36:00,
2013-03-31 10:51:00,47.3,34.1,29.15,North,0,0.0,0.0,60,0.00,,,0.08,VWS V14.01,2013-03-31 14:51:00,
2013-03-31 11:07:00,47.8,35.1,29.15,North,0,0.0,0.0,61,0.00,,,0.08,VWS V14.01,2013-03-31 15:07:00,
2013-03-31 11:22:00,48.0,35.6,29.15,North,0,0.0,0.0,62,0.00,,,0.08,VWS V14.01,2013-03-31 15:22:00,
2013-03-31 11:37:00,48.4,36.4,29.15,North,0,0.0,0.0,63,0.00,,,0.08,VWS V14.01,2013-03-31 15:37:00,
2013-03-31 11:52:00,48.6,36.2,29.15,North,0,0.0,0.0,62,0.00,,,0.08,VWS V14.01,2013-03-31 15:52:00,
2013-03-31 12:06:00,49.3,37.6,29.15,North,0,0.0,0.0,64,0.00,,,0.08,VWS V14.01,2013-03-31 16:06:00,
2013-03-31 12:22:00,49.5,37.8,29.12,North,0,0.0,0.0,64,0.00,,,0.08,VWS V14.01,2013-03-31 16:22:00,
2013-03-31 12:36:00,49.6,37.6,29.12,North,0,0.0,0.0,63,0.04,,,0.12,VWS V14.01,2013-03-31 16:36:00,
2013-03-31 12:51:00,50.0,38.7,29.12,North,0,0.0,0.0,65,0.04,,,0.12,VWS V14.01,2013-03-31 16:51:00,
2013-03-31 13:06:00,50.5,39.6,29.12,North,0,0.0,0.0,66,0.04,,,0.12,VWS V14.01,2013-03-31 17:06:00,
2013-03-31 13:21:00,50.9,40.0,29.12,North,0,0.0,0.0,66,0.04,,,0.12,VWS V14.01,2013-03-31 17:21:00,
2013-03-31 13:37:00,50.9,40.3,29.12,North,0,0.0,0.0,67,0.04,,,0.12,VWS V14.01,2013-03-31 17:37:00,
2013-03-31 13:51:00,50.5,40.0,29.12,North,0,0.0,0.0,67,0.00,,,0.12,VWS V14.01,2013-03-31 17:51:00,
2013-03-31 14:06:00,51.4,41.2,29.12,North,0,0.0,0.0,68,0.00,,,0.12,VWS V14.01,2013-03-31 18:06:00,
2013-03-31 14:21:00,51.8,41.6,29.12,North,0,0.0,0.0,68,0.00,,,0.12,VWS V14.01,2013-03-31 18:21:00,
2013-03-31 14:36:00,52.3,42.1,29.12,North,0,0.0,0.0,68,0.00,,,0.12,VWS V14.01,2013-03-31 18:36:00,
2013-03-31 14:51:00,52.3,42.5,29.12,North,0,0.0,0.0,69,0.00,,,0.12,VWS V14.01,2013-03-31 18:51:00,
2013-03-31 15:06:00,52.7,42.8,29.12,North,0,0.0,0.0,69,0.04,,,0.16,VWS V14.01,2013-03-31 19:06:00,
2013-03-31 15:22:00,52.9,43.0,29.15,North,0,0.0,0.0,69,0.04,,,0.16,VWS V14.01,2013-03-31 19:22:00,
2013-03-31 15:36:00,53.2,43.7,29.15,North,0,0.0,0.0,70,0.08,,,0.20,VWS V14.01,2013-03-31 19:36:00,
2013-03-31 15:51:00,53.4,43.9,29.15,North,0,0.0,0.0,70,0.12,,,0.24,VWS V14.01,2013-03-31 19:51:00,
2013-03-31 16:06:00,53.1,43.5,29.15,North,0,0.0,0.0,70,0.20,,,0.31,VWS V14.01,2013-03-31 20:06:00,
2013-03-31 16:21:00,52.3,42.5,29.15,North,357,0.0,0.0,69,0.16,,,0.31,VWS V14.01,2013-03-31 20:21:00,
2013-03-31 16:37:00,52.2,43.1,29.15,North,9,0.0,0.0,71,0.16,,,0.31,VWS V14.01,2013-03-31 20:37:00,
2013-03-31 16:51:00,52.9,43.8,29.15,WNW,299,0.0,0.0,71,0.12,,,0.31,VWS V14.01,2013-03-31 20:51:00,
2013-03-31 17:07:00,52.9,43.8,29.15,SSE,161,0.0,0.0,71,0.12,,,0.35,VWS V14.01,2013-03-31 21:07:00,
2013-03-31 17:22:00,52.7,43.2,29.15,ENE,77,0.0,0.0,70,0.04,,,0.35,VWS V14.01,2013-03-31 21:22:00,
2013-03-31 17:36:00,53.1,43.5,29.12,ENE,77,0.0,0.0,70,0.04,,,0.35,VWS V14.01,2013-03-31 21:36:00,
2013-03-31 17:51:00,53.4,43.9,29.12,ENE,75,0.0,0.0,70,0.04,,,0.35,VWS V14.01,2013-03-31 21:51:00,
2013-03-31 18:06:00,53.4,43.9,29.12,ENE,75,0.0,0.0,70,0.04,,,0.35,VWS V14.01,2013-03-31 22:06:00,
2013-03-31 18:22:00,53.2,43.3,29.12,ENE,75,0.0,0.0,69,0.00,,,0.35,VWS V14.01,2013-03-31 22:22:00,
2013-03-31 18:36:00,53.1,43.5,29.12,ENE,75,0.0,0.0,70,0.00,,,0.35,VWS V14.01,2013-03-31 22:36:00,
2013-03-31 18:51:00,52.9,42.6,29.15,ENE,75,0.0,0.0,68,0.00,,,0.35,VWS V14.01,2013-03-31 22:51:00,
2013-03-31 19:06:00,52.7,42.8,29.15,ENE,75,0.0,0.0,69,0.00,,,0.35,VWS V14.01,2013-03-31 23:06:00,
2013-03-31 19:21:00,52.7,42.5,29.15,ENE,75,0.0,0.0,68,0.00,,,0.35,VWS V14.01,2013-03-31 23:21:00,
2013-03-31 19:37:00,52.0,41.4,29.15,ENE,75,0.0,0.0,67,0.00,,,0.35,VWS V14.01,2013-03-31 23:37:00,
2013-03-31 19:51:00,50.9,40.0,29.15,ENE,75,0.0,0.0,66,0.00,,,0.35,VWS V14.01,2013-03-31 23:51:00,
2013-03-31 20:07:00,50.7,39.8,29.15,ENE,75,0.0,0.0,66,0.00,,,0.35,VWS V14.01,2013-04-01 00:07:00,
2013-03-31 20:21:00,50.9,40.7,29.15,ENE,75,0.0,0.0,68,0.00,,,0.35,VWS V14.01,2013-04-01 00:21:00,
2013-03-31 20:37:00,50.4,39.8,29.15,ENE,75,0.0,0.0,67,0.00,,,0.35,VWS V14.01,2013-04-01 00:37:00,
2013-03-31 20:52:00,50.0,39.5,29.18,ENE,75,0.0,0.0,67,0.00,,,0.35,VWS V14.01,2013-04-01 00:52:00,
2013-03-31 21:06:00,49.8,39.3,29.18,ENE,75,0.0,0.0,67,0.00,,,0.35,VWS V14.01,2013-04-01 01:06:00,
2013-03-31 21:21:00,49.5,38.6,29.18,ENE,75,0.0,0.0,66,0.00,,,0.35,VWS V14.01,2013-04-01 01:21:00,
2013-03-31 21:36:00,49.3,39.2,29.18,ENE,75,0.0,0.0,68,0.00,,,0.35,VWS V14.01,2013-04-01 01:36:00,
2013-03-31 21:52:00,49.5,39.3,29.18,ENE,75,0.0,0.0,68,0.00,,,0.35,VWS V14.01,2013-04-01 01:52:00,
2013-03-31 22:06:00,48.6,38.1,29.18,ENE,75,0.0,0.0,67,0.00,,,0.35,VWS V14.01,2013-04-01 02:06:00,
2013-03-31 22:21:00,48.2,37.8,29.18,ENE,75,0.0,0.0,67,0.00,,,0.35,VWS V14.01,2013-04-01 02:21:00,
2013-03-31 22:36:00,47.7,37.6,29.18,ENE,75,0.0,0.0,68,0.00,,,0.35,VWS V14.01,2013-04-01 02:36:00,
2013-03-31 22:51:00,47.1,36.7,29.18,ENE,75,0.0,0.0,67,0.00,,,0.35,VWS V14.01,2013-04-01 02:51:00,
2013-03-31 23:06:00,46.6,36.6,29.18,ENE,75,0.0,0.0,68,0.00,,,0.35,VWS V14.01,2013-04-01 03:06:00,
2013-03-31 23:21:00,46.4,36.4,29.18,ENE,75,0.0,0.0,68,0.00,,,0.35,VWS V14.01,2013-04-01 03:21:00,
2013-03-31 23:37:00,46.6,37.0,29.18,ENE,75,0.0,0.0,69,0.00,,,0.35,VWS V14.01,2013-04-01 03:37:00,
2013-03-31 23:51:00,46.9,37.3,29.18,ENE,75,0.0,0.0,69,0.00,,,0.00,VWS V14.01,2013-04-01 03:51:00,